Time,TemperatureF,DewpointF,PressureIn,WindDirection,WindDirectionDegrees,WindSpeedMPH,WindSpeedGustMPH,Humidity,HourlyPrecipIn,Conditions,Clouds,dailyrainin,SolarRadiationWatts/m^2,SoftwareType,DateUTC
2013-10-08 00:02:00,77.2,28.9,-100.00,SSW,198,0.0,-999.0,17,-99.99,,,-99.99,0.0,meteohub,2013-10-08 04:02:00,
2013-10-08 00:07:00,77.2,28.9,-100.00,SSW,198,0.0,-999.0,17,-99.99,,,-99.99,0.0,meteohub,2013-10-08 04:07:00,
2013-10-08 00:12:00,77.2,28.9,-100.00,SSW,200,2.0,-999.0,17,-99.99,,,-99.99,0.0,meteohub,2013-10-08 04:12:00,
2013-10-08 00:17:00,77.2,30.4,-100.00,SSW,200,0.0,-999.0,18,-99.99,,,-99.99,0.0,meteohub,2013-10-08 04:17:00,
2013-10-08 00:22:00,77.0,30.2,-100.00,SSW,200,0.0,-999.0,18,-99.99,,,-99.99,0.0,meteohub,2013-10-08 04:22:00,
2013-10-08 00:27:00,76.8,30.0,-100.00,SSW,200,0.0,-999.0,18,-99.99,,,-99.99,0.0,meteohub,2013-10-08 04:27:00,
2013-10-08 00:32:00,76.8,30.0,-100.00,SSW,200,0.0,-999.0,18,-99.99,,,-99.99,0.0,meteohub,2013-10-08 04:32:00,
2013-10-08 00:37:00,76.8,30.0,-100.00,SSW,200,0.0,-999.0,18,-99.99,,,-99.99,0.0,meteohub,2013-10-08 04:37:00,
2013-10-08 00:42:00,76.8,30.0,-100.00,SSW,200,0.0,-999.0,18,-99.99,,,-99.99,0.0,meteohub,2013-10-08 04:42:00,
2013-10-08 00:47:00,76.8,30.0,-100.00,SSW,200,2.0,-999.0,18,-99.99,,,-99.99,0.0,meteohub,2013-10-08 04:47:00,
2013-10-08 00:57:00,76.6,30.0,-100.00,SSW,202,2.0,-999.0,18,-99.99,,,-99.99,0.0,meteohub,2013-10-08 04:57:00,
2013-10-08 01:02:00,76.5,29.8,-100.00,SSW,202,0.0,-999.0,18,-99.99,,,-99.99,0.0,meteohub,2013-10-08 05:02:00,
2013-10-08 01:07:00,76.5,29.8,-100.00,SSW,205,1.0,-999.0,18,-99.99,,,-99.99,0.0,meteohub,2013-10-08 05:07:00,
2013-10-08 01:12:00,76.5,29.8,-100.00,SSW,205,2.0,-999.0,18,-99.99,,,-99.99,0.0,meteohub,2013-10-08 05:12:00,
2013-10-08 01:17:00,76.5,31.1,-100.00,SSW,205,0.0,-999.0,19,-99.99,,,-99.99,0.0,meteohub,2013-10-08 05:17:00,
2013-10-08 01:22:00,76.5,31.1,-100.00,SSW,205,4.0,-999.0,19,-99.99,,,-99.99,0.0,meteohub,2013-10-08 05:22:00,
2013-10-08 01:27:00,76.5,31.1,-100.00,SSW,205,2.0,-999.0,19,-99.99,,,-99.99,0.0,meteohub,2013-10-08 05:27:00,
2013-10-08 01:32:00,76.3,30.9,-100.00,SSW,205,2.0,-999.0,19,-99.99,,,-99.99,0.0,meteohub,2013-10-08 05:32:00,
2013-10-08 01:37:00,76.3,30.9,-100.00,SSW,196,5.0,-999.0,19,-99.99,,,-99.99,0.0,meteohub,2013-10-08 05:37:00,
2013-10-08 01:42:00,76.3,30.9,-100.00,SSW,197,0.0,-999.0,19,-99.99,,,-99.99,0.0,meteohub,2013-10-08 05:42:00,
2013-10-08 01:47:00,76.3,30.9,-100.00,SSW,207,0.0,-999.0,19,-99.99,,,-99.99,0.0,meteohub,2013-10-08 05:47:00,
2013-10-08 01:52:00,76.3,30.9,-100.00,SW,217,1.0,-999.0,19,-99.99,,,-99.99,0.0,meteohub,2013-10-08 05:52:00,
2013-10-08 01:57:00,76.3,30.9,-100.00,SW,217,1.0,-999.0,19,-99.99,,,-99.99,0.0,meteohub,2013-10-08 05:57:00,
2013-10-08 02:02:00,76.3,30.9,-100.00,SW,216,0.0,-999.0,19,-99.99,,,-99.99,0.0,meteohub,2013-10-08 06:02:00,
2013-10-08 02:07:00,76.3,30.9,-100.00,SW,225,3.0,-999.0,19,-99.99,,,-99.99,0.0,meteohub,2013-10-08 06:07:00,
2013-10-08 02:12:00,76.3,30.9,-100.00,SW,225,0.0,-999.0,19,-99.99,,,-99.99,0.0,meteohub,2013-10-08 06:12:00,
2013-10-08 02:17:00,76.3,30.9,-100.00,SW,225,0.0,-999.0,19,-99.99,,,-99.99,0.0,meteohub,2013-10-08 06:17:00,
2013-10-08 02:22:00,76.3,30.9,-100.00,SW,223,1.0,-999.0,19,-99.99,,,-99.99,0.0,meteohub,2013-10-08 06:22:00,
2013-10-08 02:32:00,76.5,31.1,-100.00,SSW,206,0.0,-999.0,19,-99.99,,,-99.99,0.0,meteohub,2013-10-08 06:32:00,
2013-10-08 02:37:00,76.5,31.1,-100.00,SSW,206,0.0,-999.0,19,-99.99,,,-99.99,0.0,meteohub,2013-10-08 06:37:00,
2013-10-08 02:42:00,76.5,32.4,-100.00,SSW,206,0.0,-999.0,20,-99.99,,,-99.99,0.0,meteohub,2013-10-08 06:42:00,
2013-10-08 02:47:00,76.5,32.4,-100.00,SSW,206,0.0,-999.0,20,-99.99,,,-99.99,0.0,meteohub,2013-10-08 06:47:00,
2013-10-08 02:52:00,76.5,32.4,-100.00,SSW,206,0.0,-999.0,20,-99.99,,,-99.99,0.0,meteohub,2013-10-08 06:52:00,
2013-10-08 02:57:00,76.5,32.4,-100.00,SSW,206,0.0,-999.0,20,-99.99,,,-99.99,0.0,meteohub,2013-10-08 06:57:00,
2013-10-08 03:02:00,76.5,32.4,-100.00,SSW,206,0.0,-999.0,20,-99.99,,,-99.99,0.0,meteohub,2013-10-08 07:02:00,
2013-10-08 03:07:00,76.5,32.4,-100.00,SSW,205,0.0,-999.0,20,-99.99,,,-99.99,0.0,meteohub,2013-10-08 07:07:00,
2013-10-08 03:12:00,76.5,32.4,-100.00,SSW,204,0.0,-999.0,20,-99.99,,,-99.99,0.0,meteohub,2013-10-08 07:12:00,
2013-10-08 03:17:00,76.3,32.2,-100.00,SSW,203,6.0,-999.0,20,-99.99,,,-99.99,0.0,meteohub,2013-10-08 07:17:00,
2013-10-08 03:22:00,76.5,32.4,-100.00,SSW,205,4.0,-999.0,20,-99.99,,,-99.99,0.0,meteohub,2013-10-08 07:22:00,
2013-10-08 03:27:00,76.5,32.4,-100.00,SSW,206,0.0,-999.0,20,-99.99,,,-99.99,0.0,meteohub,2013-10-08 07:27:00,
2013-10-08 03:32:00,76.5,32.4,-100.00,SSW,206,0.0,-999.0,20,-99.99,,,-99.99,0.0,meteohub,2013-10-08 07:32:00,
2013-10-08 03:37:00,76.5,32.4,-100.00,SSW,207,3.0,-999.0,20,-99.99,,,-99.99,0.0,meteohub,2013-10-08 07:37:00,
2013-10-08 03:42:00,76.5,32.4,-100.00,SSW,208,5.0,-999.0,20,-99.99,,,-99.99,0.0,meteohub,2013-10-08 07:42:00,
2013-10-08 03:47:00,76.5,32.4,-100.00,SSW,207,0.0,-999.0,20,-99.99,,,-99.99,0.0,meteohub,2013-10-08 07:47:00,
2013-10-08 03:52:00,76.5,32.4,-100.00,SSW,207,1.0,-999.0,20,-99.99,,,-99.99,0.0,meteohub,2013-10-08 07:52:00,
2013-10-08 03:57:00,76.5,32.4,-100.00,SSW,207,0.0,-999.0,20,-99.99,,,-99.99,0.0,meteohub,2013-10-08 07:57:00,
2013-10-08 04:02:00,76.5,32.4,-100.00,SSW,207,0.0,-999.0,20,-99.99,,,-99.99,0.0,meteohub,2013-10-08 08:02:00,
2013-10-08 04:07:00,76.5,32.4,-100.00,SSW,207,0.0,-999.0,20,-99.99,,,-99.99,0.0,meteohub,2013-10-08 08:07:00,
2013-10-08 04:12:00,76.5,32.4,-100.00,SSW,209,0.0,-999.0,20,-99.99,,,-99.99,0.0,meteohub,2013-10-08 08:12:00,
2013-10-08 04:17:00,76.5,32.4,-100.00,SSW,209,3.0,-999.0,20,-99.99,,,-99.99,0.0,meteohub,2013-10-08 08:17:00,
2013-10-08 04:22:00,76.5,32.4,-100.00,SSW,213,0.0,-999.0,20,-99.99,,,-99.99,0.0,meteohub,2013-10-08 08:22:00,
2013-10-08 04:27:00,76.3,32.2,-100.00,SSW,213,0.0,-999.0,20,-99.99,,,-99.99,0.0,meteohub,2013-10-08 08:27:00,
2013-10-08 04:32:00,76.3,32.2,-100.00,SSW,213,0.0,-999.0,20,-99.99,,,-99.99,0.0,meteohub,2013-10-08 08:32:00,
2013-10-08 04:42:00,76.3,33.4,-100.00,SSW,213,4.0,-999.0,21,-99.99,,,-99.99,0.0,meteohub,2013-10-08 08:42:00,
2013-10-08 04:47:00,76.3,33.4,-100.00,SSW,213,0.0,-999.0,21,-99.99,,,-99.99,0.0,meteohub,2013-10-08 08:47:00,
2013-10-08 04:52:00,76.3,33.4,-100.00,SSW,213,0.0,-999.0,21,-99.99,,,-99.99,0.0,meteohub,2013-10-08 08:52:00,
2013-10-08 04:57:00,76.3,33.4,-100.00,SSW,213,0.0,-999.0,21,-99.99,,,-99.99,0.0,meteohub,2013-10-08 08:57:00,
2013-10-08 05:02:00,76.3,33.4,-100.00,SSW,213,0.0,-999.0,21,-99.99,,,-99.99,0.0,meteohub,2013-10-08 09:02:00,
2013-10-08 05:07:00,76.3,33.4,-100.00,SSW,213,0.0,-999.0,21,-99.99,,,-99.99,0.0,meteohub,2013-10-08 09:07:00,
2013-10-08 05:12:00,76.3,33.4,-100.00,SSW,213,0.0,-999.0,21,-99.99,,,-99.99,0.0,meteohub,2013-10-08 09:12:00,
2013-10-08 05:17:00,76.1,33.3,-100.00,SSW,213,0.0,-999.0,21,-99.99,,,-99.99,0.0,meteohub,2013-10-08 09:17:00,
2013-10-08 05:22:00,76.3,33.4,-100.00,SSW,213,0.0,-999.0,21,-99.99,,,-99.99,0.0,meteohub,2013-10-08 09:22:00,
2013-10-08 05:27:00,76.1,33.3,-100.00,SSW,213,0.0,-999.0,21,-99.99,,,-99.99,0.0,meteohub,2013-10-08 09:27:00,
2013-10-08 05:32:00,76.1,33.3,-100.00,SSW,213,0.0,-999.0,21,-99.99,,,-99.99,0.0,meteohub,2013-10-08 09:32:00,
2013-10-08 05:37:00,75.9,33.3,-100.00,SSW,213,0.0,-999.0,21,-99.99,,,-99.99,0.0,meteohub,2013-10-08 09:37:00,
2013-10-08 05:42:00,75.9,33.3,-100.00,SSW,213,0.0,-999.0,21,-99.99,,,-99.99,0.0,meteohub,2013-10-08 09:42:00,
2013-10-08 05:47:00,75.9,33.3,-100.00,SSW,213,0.0,-999.0,21,-99.99,,,-99.99,0.0,meteohub,2013-10-08 09:47:00,
2013-10-08 05:52:00,75.9,33.3,-100.00,SSW,213,0.0,-999.0,21,-99.99,,,-99.99,0.0,meteohub,2013-10-08 09:52:00,
2013-10-08 05:57:00,75.9,34.3,-100.00,SSW,213,0.0,-999.0,22,-99.99,,,-99.99,0.0,meteohub,2013-10-08 09:57:00,
2013-10-08 06:02:00,75.9,34.3,-100.00,SSW,213,0.0,-999.0,22,-99.99,,,-99.99,0.0,meteohub,2013-10-08 10:02:00,
2013-10-08 06:07:00,75.9,34.3,-100.00,SSW,213,0.0,-999.0,22,-99.99,,,-99.99,0.0,meteohub,2013-10-08 10:07:00,
2013-10-08 06:12:00,75.9,34.3,-100.00,SSW,213,3.0,-999.0,22,-99.99,,,-99.99,0.0,meteohub,2013-10-08 10:12:00,
2013-10-08 06:17:00,75.9,34.3,-100.00,SSW,213,0.0,-999.0,22,-99.99,,,-99.99,0.0,meteohub,2013-10-08 10:17:00,
2013-10-08 06:22:00,75.9,34.3,-100.00,SSW,213,0.0,-999.0,22,-99.99,,,-99.99,0.0,meteohub,2013-10-08 10:22:00,
2013-10-08 06:27:00,75.9,34.3,-100.00,SSW,213,0.0,-999.0,22,-99.99,,,-99.99,0.0,meteohub,2013-10-08 10:27:00,
2013-10-08 06:32:00,75.9,34.3,-100.00,SSW,213,0.0,-999.0,22,-99.99,,,-99.99,0.0,meteohub,2013-10-08 10:32:00,
2013-10-08 06:37:00,75.9,34.3,-100.00,SSW,213,0.0,-999.0,22,-99.99,,,-99.99,0.0,meteohub,2013-10-08 10:37:00,
2013-10-08 09:17:00,79.0,35.8,-100.00,West,263,0.0,-999.0,21,-99.99,,,-99.99,387.0,meteohub,2013-10-08 13:17:00,
2013-10-08 09:22:00,79.7,36.3,-100.00,WSW,250,0.0,-999.0,21,-99.99,,,-99.99,399.0,meteohub,2013-10-08 13:22:00,
2013-10-08 09:27:00,80.2,34.2,-100.00,West,280,2.0,-999.0,19,-99.99,,,-99.99,95.0,meteohub,2013-10-08 13:27:00,
2013-10-08 09:32:00,80.8,31.8,-100.00,WNW,283,5.0,-999.0,17,-99.99,,,-99.99,441.0,meteohub,2013-10-08 13:32:00,
2013-10-08 09:37:00,81.3,30.9,-100.00,WSW,254,9.0,-999.0,16,-99.99,,,-99.99,457.0,meteohub,2013-10-08 13:37:00,
2013-10-08 09:42:00,82.0,28.2,-100.00,WSW,247,1.0,-999.0,14,-99.99,,,-99.99,492.0,meteohub,2013-10-08 13:42:00,
2013-10-08 09:47:00,82.8,27.0,-100.00,WSW,238,4.0,-999.0,13,-99.99,,,-99.99,522.0,meteohub,2013-10-08 13:47:00,
2013-10-08 09:52:00,83.3,25.3,-100.00,WSW,242,2.0,-999.0,12,-99.99,,,-99.99,633.0,meteohub,2013-10-08 13:52:00,
2013-10-08 09:57:00,83.5,21.2,-100.00,NW,308,0.0,-999.0,10,-99.99,,,-99.99,615.0,meteohub,2013-10-08 13:57:00,
2013-10-08 10:02:00,83.8,19.0,-100.00,West,269,0.0,-999.0,9,-99.99,,,-99.99,603.0,meteohub,2013-10-08 14:02:00,
2013-10-08 10:07:00,83.8,16.3,-100.00,WSW,242,8.0,-999.0,8,-99.99,,,-99.99,179.0,meteohub,2013-10-08 14:07:00,
2013-10-08 10:12:00,83.7,16.2,-100.00,West,275,0.0,-999.0,8,-99.99,,,-99.99,179.0,meteohub,2013-10-08 14:12:00,
2013-10-08 10:17:00,83.8,16.3,-100.00,SW,215,5.0,-999.0,8,-99.99,,,-99.99,661.0,meteohub,2013-10-08 14:17:00,
2013-10-08 10:22:00,83.8,16.3,-100.00,West,268,6.0,-999.0,8,-99.99,,,-99.99,657.0,meteohub,2013-10-08 14:22:00,
2013-10-08 10:27:00,83.8,16.3,-100.00,SW,234,6.0,-999.0,8,-99.99,,,-99.99,703.0,meteohub,2013-10-08 14:27:00,
2013-10-08 10:32:00,84.4,16.7,-100.00,West,275,3.0,-999.0,8,-99.99,,,-99.99,698.0,meteohub,2013-10-08 14:32:00,
2013-10-08 10:37:00,84.2,16.5,-100.00,WSW,250,4.0,-999.0,8,-99.99,,,-99.99,738.0,meteohub,2013-10-08 14:37:00,
2013-10-08 10:42:00,84.4,16.7,-100.00,WSW,257,7.0,-999.0,8,-99.99,,,-99.99,693.0,meteohub,2013-10-08 14:42:00,
2013-10-08 10:47:00,84.0,19.0,-100.00,WNW,300,2.0,-999.0,9,-99.99,,,-99.99,714.0,meteohub,2013-10-08 14:47:00,
2013-10-08 10:52:00,84.0,19.0,-100.00,WNW,296,7.0,-999.0,9,-99.99,,,-99.99,745.0,meteohub,2013-10-08 14:52:00,
2013-10-08 10:57:00,84.4,16.7,-100.00,WSW,241,1.0,-999.0,8,-99.99,,,-99.99,708.0,meteohub,2013-10-08 14:57:00,
2013-10-08 11:02:00,84.6,21.9,-100.00,West,277,3.0,-999.0,10,-99.99,,,-99.99,722.0,meteohub,2013-10-08 15:02:00,
2013-10-08 11:07:00,84.6,24.3,-100.00,WSW,254,0.0,-999.0,11,-99.99,,,-99.99,751.0,meteohub,2013-10-08 15:07:00,
2013-10-08 11:12:00,84.7,28.4,-100.00,NW,304,1.0,-999.0,13,-99.99,,,-99.99,763.0,meteohub,2013-10-08 15:12:00,
2013-10-08 11:17:00,84.6,31.8,-100.00,NW,309,4.0,-999.0,15,-99.99,,,-99.99,772.0,meteohub,2013-10-08 15:17:00,
2013-10-08 11:22:00,84.2,34.7,-100.00,West,277,7.0,-999.0,17,-99.99,,,-99.99,788.0,meteohub,2013-10-08 15:22:00,
2013-10-08 11:27:00,84.6,30.2,-100.00,West,281,2.0,-999.0,14,-99.99,,,-99.99,812.0,meteohub,2013-10-08 15:27:00,
2013-10-08 11:32:00,84.6,30.2,-100.00,NW,325,5.0,-999.0,14,-99.99,,,-99.99,875.0,meteohub,2013-10-08 15:32:00,
2013-10-08 11:37:00,85.6,25.2,-100.00,WNW,303,6.0,-999.0,11,-99.99,,,-99.99,912.0,meteohub,2013-10-08 15:37:00,
2013-10-08 11:42:00,85.6,34.3,-100.00,West,263,5.0,-999.0,16,-99.99,,,-99.99,935.0,meteohub,2013-10-08 15:42:00,
2013-10-08 11:47:00,85.6,38.7,-100.00,NW,323,3.0,-999.0,19,-99.99,,,-99.99,809.0,meteohub,2013-10-08 15:47:00,
2013-10-08 11:52:00,85.5,41.0,-100.00,NW,310,4.0,-999.0,21,-99.99,,,-99.99,970.0,meteohub,2013-10-08 15:52:00,
2013-10-08 11:57:00,85.3,42.1,-100.00,WNW,294,7.0,-999.0,22,-99.99,,,-99.99,812.0,meteohub,2013-10-08 15:57:00,
2013-10-08 12:02:00,84.9,41.9,-100.00,West,273,9.0,-999.0,22,-99.99,,,-99.99,244.0,meteohub,2013-10-08 16:02:00,
2013-10-08 12:07:00,84.6,43.9,-100.00,NW,315,8.0,-999.0,24,-99.99,,,-99.99,195.0,meteohub,2013-10-08 16:07:00,
2013-10-08 12:12:00,84.2,41.2,-100.00,WSW,241,3.0,-999.0,22,-99.99,,,-99.99,192.0,meteohub,2013-10-08 16:12:00,
2013-10-08 12:17:00,84.4,36.3,-100.00,WNW,288,0.0,-999.0,18,-99.99,,,-99.99,974.0,meteohub,2013-10-08 16:17:00,
2013-10-08 12:22:00,84.6,40.3,-100.00,WNW,282,3.0,-999.0,21,-99.99,,,-99.99,877.0,meteohub,2013-10-08 16:22:00,
2013-10-08 12:32:00,85.8,46.9,-100.00,West,263,0.0,-999.0,26,-99.99,,,-99.99,904.0,meteohub,2013-10-08 16:32:00,
2013-10-08 12:37:00,86.4,53.8,-100.00,WNW,303,3.0,-999.0,33,-99.99,,,-99.99,949.0,meteohub,2013-10-08 16:37:00,
2013-10-08 12:42:00,86.4,53.1,-100.00,WSW,245,5.0,-999.0,32,-99.99,,,-99.99,962.0,meteohub,2013-10-08 16:42:00,
2013-10-08 12:47:00,86.7,52.5,-100.00,NW,311,11.0,-999.0,31,-99.99,,,-99.99,877.0,meteohub,2013-10-08 16:47:00,
2013-10-08 12:52:00,86.5,54.0,-100.00,NW,318,10.0,-999.0,33,-99.99,,,-99.99,294.0,meteohub,2013-10-08 16:52:00,
2013-10-08 12:57:00,86.7,56.7,-100.00,NW,314,6.0,-999.0,36,-99.99,,,-99.99,979.0,meteohub,2013-10-08 16:57:00,
2013-10-08 13:02:00,87.1,59.9,-100.00,West,269,5.0,-999.0,40,-99.99,,,-99.99,851.0,meteohub,2013-10-08 17:02:00,
2013-10-08 13:07:00,86.9,59.7,-100.00,NNW,331,8.0,-999.0,40,-99.99,,,-99.99,287.0,meteohub,2013-10-08 17:07:00,
2013-10-08 13:12:00,87.1,58.5,-100.00,WNW,284,0.0,-999.0,38,-99.99,,,-99.99,888.0,meteohub,2013-10-08 17:12:00,
2013-10-08 13:17:00,87.8,60.4,-100.00,NW,313,5.0,-999.0,40,-99.99,,,-99.99,272.0,meteohub,2013-10-08 17:17:00,
2013-10-08 13:22:00,87.8,61.9,-100.00,NNW,333,5.0,-999.0,42,-99.99,,,-99.99,308.0,meteohub,2013-10-08 17:22:00,
2013-10-08 13:27:00,88.0,63.3,-100.00,West,277,10.0,-999.0,44,-99.99,,,-99.99,494.0,meteohub,2013-10-08 17:27:00,
2013-10-08 13:32:00,87.6,61.0,-100.00,WSW,245,3.0,-999.0,41,-99.99,,,-99.99,933.0,meteohub,2013-10-08 17:32:00,
2013-10-08 13:37:00,87.8,63.1,-100.00,NW,309,10.0,-999.0,44,-99.99,,,-99.99,338.0,meteohub,2013-10-08 17:37:00,
2013-10-08 13:42:00,88.0,63.3,-100.00,NW,307,4.0,-999.0,44,-99.99,,,-99.99,209.0,meteohub,2013-10-08 17:42:00,
2013-10-08 13:47:00,88.2,63.5,-100.00,NW,325,8.0,-999.0,44,-99.99,,,-99.99,962.0,meteohub,2013-10-08 17:47:00,
2013-10-08 13:52:00,89.1,64.9,-100.00,SW,232,4.0,-999.0,45,-99.99,,,-99.99,1020.0,meteohub,2013-10-08 17:52:00,
2013-10-08 13:57:00,88.3,64.2,-100.00,WSW,249,4.0,-999.0,45,-99.99,,,-99.99,272.0,meteohub,2013-10-08 17:57:00,
2013-10-08 14:02:00,88.5,64.4,-100.00,WNW,286,1.0,-999.0,45,-99.99,,,-99.99,202.0,meteohub,2013-10-08 18:02:00,
2013-10-08 14:07:00,88.3,64.9,-100.00,WSW,257,5.0,-999.0,46,-99.99,,,-99.99,188.0,meteohub,2013-10-08 18:07:00,
2013-10-08 14:12:00,88.5,64.4,-100.00,West,265,10.0,-999.0,45,-99.99,,,-99.99,872.0,meteohub,2013-10-08 18:12:00,
2013-10-08 14:17:00,89.1,66.7,-100.00,West,279,5.0,-999.0,48,-99.99,,,-99.99,860.0,meteohub,2013-10-08 18:17:00,
2013-10-08 14:22:00,89.4,68.4,-100.00,West,272,5.0,-999.0,50,-99.99,,,-99.99,824.0,meteohub,2013-10-08 18:22:00,
2013-10-08 14:27:00,90.1,68.9,-100.00,WNW,290,3.0,-999.0,50,-99.99,,,-99.99,867.0,meteohub,2013-10-08 18:27:00,
2013-10-08 14:32:00,89.8,69.3,-100.00,WNW,297,6.0,-999.0,51,-99.99,,,-99.99,912.0,meteohub,2013-10-08 18:32:00,
2013-10-08 14:37:00,89.4,68.9,-100.00,WSW,253,1.0,-999.0,51,-99.99,,,-99.99,819.0,meteohub,2013-10-08 18:37:00,
2013-10-08 14:42:00,89.8,69.8,-100.00,NW,310,9.0,-999.0,52,-99.99,,,-99.99,761.0,meteohub,2013-10-08 18:42:00,
2013-10-08 14:47:00,90.0,69.4,-100.00,West,263,3.0,-999.0,51,-99.99,,,-99.99,784.0,meteohub,2013-10-08 18:47:00,
2013-10-08 14:52:00,90.3,70.9,-100.00,NNW,329,5.0,-999.0,53,-99.99,,,-99.99,809.0,meteohub,2013-10-08 18:52:00,
2013-10-08 14:57:00,90.9,72.0,-100.00,West,268,10.0,-999.0,54,-99.99,,,-99.99,803.0,meteohub,2013-10-08 18:57:00,
2013-10-08 15:02:00,91.0,71.6,-100.00,WNW,302,4.0,-999.0,53,-99.99,,,-99.99,824.0,meteohub,2013-10-08 19:02:00,
2013-10-08 15:07:00,91.0,72.1,-100.00,NW,313,6.0,-999.0,54,-99.99,,,-99.99,870.0,meteohub,2013-10-08 19:07:00,
2013-10-08 15:12:00,91.0,72.1,-100.00,SW,225,4.0,-999.0,54,-99.99,,,-99.99,311.0,meteohub,2013-10-08 19:12:00,
2013-10-08 15:17:00,90.9,72.0,-100.00,WNW,288,3.0,-999.0,54,-99.99,,,-99.99,800.0,meteohub,2013-10-08 19:17:00,
2013-10-08 15:22:00,91.2,72.3,-100.00,West,264,1.0,-999.0,54,-99.99,,,-99.99,236.0,meteohub,2013-10-08 19:22:00,
2013-10-08 15:27:00,91.0,72.1,-100.00,NW,311,5.0,-999.0,54,-99.99,,,-99.99,773.0,meteohub,2013-10-08 19:27:00,
2013-10-08 15:32:00,91.6,72.5,-100.00,WSW,257,6.0,-999.0,54,-99.99,,,-99.99,722.0,meteohub,2013-10-08 19:32:00,
2013-10-08 15:37:00,90.9,72.0,-100.00,WSW,242,6.0,-999.0,54,-99.99,,,-99.99,206.0,meteohub,2013-10-08 19:37:00,
2013-10-08 15:42:00,90.1,71.2,-100.00,WNW,288,1.0,-999.0,54,-99.99,,,-99.99,339.0,meteohub,2013-10-08 19:42:00,
2013-10-08 15:47:00,90.5,71.6,-100.00,WNW,290,0.0,-999.0,54,-99.99,,,-99.99,710.0,meteohub,2013-10-08 19:47:00,
2013-10-08 15:52:00,91.2,72.3,-100.00,West,259,6.0,-999.0,54,-99.99,,,-99.99,679.0,meteohub,2013-10-08 19:52:00,
2013-10-08 15:57:00,91.0,72.1,-100.00,West,275,6.0,-999.0,54,-99.99,,,-99.99,680.0,meteohub,2013-10-08 19:57:00,
2013-10-08 16:02:00,91.6,72.5,-100.00,WNW,294,2.0,-999.0,54,-99.99,,,-99.99,656.0,meteohub,2013-10-08 20:02:00,
2013-10-08 16:07:00,91.2,71.6,-100.00,West,262,6.0,-999.0,53,-99.99,,,-99.99,624.0,meteohub,2013-10-08 20:07:00,
2013-10-08 16:12:00,91.2,72.3,-100.00,West,265,6.0,-999.0,54,-99.99,,,-99.99,649.0,meteohub,2013-10-08 20:12:00,
2013-10-08 16:17:00,91.0,72.7,-100.00,SW,226,1.0,-999.0,55,-99.99,,,-99.99,584.0,meteohub,2013-10-08 20:17:00,
2013-10-08 16:22:00,91.2,72.3,-100.00,WSW,242,12.0,-999.0,54,-99.99,,,-99.99,508.0,meteohub,2013-10-08 20:22:00,
2013-10-08 16:27:00,90.9,72.5,-100.00,WNW,288,5.0,-999.0,55,-99.99,,,-99.99,179.0,meteohub,2013-10-08 20:27:00,
2013-10-08 16:32:00,90.7,72.3,-100.00,WNW,290,5.0,-999.0,55,-99.99,,,-99.99,529.0,meteohub,2013-10-08 20:32:00,
2013-10-08 16:37:00,90.7,72.3,-100.00,West,267,7.0,-999.0,55,-99.99,,,-99.99,434.0,meteohub,2013-10-08 20:37:00,
2013-10-08 16:42:00,90.3,72.0,-100.00,WNW,288,4.0,-999.0,55,-99.99,,,-99.99,510.0,meteohub,2013-10-08 20:42:00,
2013-10-08 16:47:00,90.3,71.4,-100.00,West,276,4.0,-999.0,54,-99.99,,,-99.99,151.0,meteohub,2013-10-08 20:47:00,
2013-10-08 16:52:00,89.8,70.3,-100.00,WNW,294,4.0,-999.0,53,-99.99,,,-99.99,156.0,meteohub,2013-10-08 20:52:00,
2013-10-08 16:57:00,90.0,70.5,-100.00,WSW,256,0.0,-999.0,53,-99.99,,,-99.99,541.0,meteohub,2013-10-08 20:57:00,
2013-10-08 17:02:00,90.5,71.6,-100.00,SSW,213,5.0,-999.0,54,-99.99,,,-99.99,541.0,meteohub,2013-10-08 21:02:00,
2013-10-08 17:07:00,90.1,71.2,-100.00,SW,230,2.0,-999.0,54,-99.99,,,-99.99,483.0,meteohub,2013-10-08 21:07:00,
2013-10-08 17:12:00,90.5,71.6,-100.00,WSW,250,3.0,-999.0,54,-99.99,,,-99.99,454.0,meteohub,2013-10-08 21:12:00,
2013-10-08 17:17:00,90.9,72.5,-100.00,NNW,338,7.0,-999.0,55,-99.99,,,-99.99,174.0,meteohub,2013-10-08 21:17:00,
2013-10-08 17:22:00,90.9,72.5,-100.00,NNW,333,2.0,-999.0,55,-99.99,,,-99.99,362.0,meteohub,2013-10-08 21:22:00,
2013-10-08 17:27:00,91.0,72.1,-100.00,SW,236,2.0,-999.0,54,-99.99,,,-99.99,355.0,meteohub,2013-10-08 21:27:00,
2013-10-08 17:32:00,90.9,72.5,-100.00,WSW,256,9.0,-999.0,55,-99.99,,,-99.99,357.0,meteohub,2013-10-08 21:32:00,
2013-10-08 17:37:00,91.0,72.7,-100.00,WNW,292,7.0,-999.0,55,-99.99,,,-99.99,292.0,meteohub,2013-10-08 21:37:00,
2013-10-08 17:42:00,90.5,72.1,-100.00,West,272,6.0,-999.0,55,-99.99,,,-99.99,239.0,meteohub,2013-10-08 21:42:00,
2013-10-08 17:47:00,90.1,71.8,-100.00,WNW,286,4.0,-999.0,55,-99.99,,,-99.99,223.0,meteohub,2013-10-08 21:47:00,
2013-10-08 17:52:00,89.8,71.4,-100.00,WNW,294,3.0,-999.0,55,-99.99,,,-99.99,188.0,meteohub,2013-10-08 21:52:00,
2013-10-08 17:57:00,89.4,71.1,-100.00,West,279,3.0,-999.0,55,-99.99,,,-99.99,178.0,meteohub,2013-10-08 21:57:00,
2013-10-08 18:02:00,89.2,70.9,-100.00,SW,228,5.0,-999.0,55,-99.99,,,-99.99,148.0,meteohub,2013-10-08 22:02:00,
2013-10-08 18:07:00,89.1,70.7,-100.00,West,281,6.0,-999.0,55,-99.99,,,-99.99,104.0,meteohub,2013-10-08 22:07:00,
2013-10-08 18:12:00,88.7,70.5,-100.00,West,273,3.0,-999.0,55,-99.99,,,-99.99,69.0,meteohub,2013-10-08 22:12:00,
2013-10-08 18:17:00,88.5,70.3,-100.00,NNW,329,10.0,-999.0,55,-99.99,,,-99.99,69.0,meteohub,2013-10-08 22:17:00,
2013-10-08 18:22:00,88.2,70.0,-100.00,NW,318,1.0,-999.0,55,-99.99,,,-99.99,58.0,meteohub,2013-10-08 22:22:00,
2013-10-08 18:27:00,88.0,69.8,-100.00,NW,307,5.0,-999.0,55,-99.99,,,-99.99,51.0,meteohub,2013-10-08 22:27:00,
2013-10-08 18:32:00,87.6,69.4,-100.00,West,273,4.0,-999.0,55,-99.99,,,-99.99,39.0,meteohub,2013-10-08 22:32:00,
2013-10-08 18:37:00,87.3,68.5,-100.00,West,269,0.0,-999.0,54,-99.99,,,-99.99,18.0,meteohub,2013-10-08 22:37:00,
2013-10-08 18:42:00,86.9,67.6,-100.00,West,268,1.0,-999.0,53,-99.99,,,-99.99,12.0,meteohub,2013-10-08 22:42:00,
2013-10-08 18:47:00,86.5,66.7,-100.00,SW,219,2.0,-999.0,52,-99.99,,,-99.99,11.0,meteohub,2013-10-08 22:47:00,
2013-10-08 18:52:00,86.4,66.7,-100.00,SW,227,0.0,-999.0,52,-99.99,,,-99.99,7.0,meteohub,2013-10-08 22:52:00,
2013-10-08 18:57:00,86.0,65.8,-100.00,SW,234,0.0,-999.0,51,-99.99,,,-99.99,0.0,meteohub,2013-10-08 22:57:00,
2013-10-08 19:02:00,85.6,65.5,-100.00,WSW,238,0.0,-999.0,51,-99.99,,,-99.99,0.0,meteohub,2013-10-08 23:02:00,
2013-10-08 19:07:00,85.5,65.3,-100.00,WSW,238,1.0,-999.0,51,-99.99,,,-99.99,0.0,meteohub,2013-10-08 23:07:00,
2013-10-08 19:12:00,85.3,64.6,-100.00,WSW,239,0.0,-999.0,50,-99.99,,,-99.99,0.0,meteohub,2013-10-08 23:12:00,
2013-10-08 19:17:00,85.1,64.4,-100.00,WSW,239,0.0,-999.0,50,-99.99,,,-99.99,0.0,meteohub,2013-10-08 23:17:00,
2013-10-08 19:27:00,84.6,62.8,-100.00,WSW,239,0.0,-999.0,48,-99.99,,,-99.99,0.0,meteohub,2013-10-08 23:27:00,
2013-10-08 19:32:00,84.4,61.9,-100.00,WSW,239,0.0,-999.0,47,-99.99,,,-99.99,0.0,meteohub,2013-10-08 23:32:00,
2013-10-08 19:37:00,84.0,61.0,-100.00,WSW,239,0.0,-999.0,46,-99.99,,,-99.99,0.0,meteohub,2013-10-08 23:37:00,
2013-10-08 19:42:00,83.8,60.3,-100.00,WSW,238,0.0,-999.0,45,-99.99,,,-99.99,0.0,meteohub,2013-10-08 23:42:00,
2013-10-08 19:47:00,83.7,59.4,-100.00,WSW,239,0.0,-999.0,44,-99.99,,,-99.99,0.0,meteohub,2013-10-08 23:47:00,
2013-10-08 19:52:00,83.5,58.6,-100.00,WSW,239,0.0,-999.0,43,-99.99,,,-99.99,0.0,meteohub,2013-10-08 23:52:00,
2013-10-08 19:57:00,83.3,57.7,-100.00,WSW,238,0.0,-999.0,42,-99.99,,,-99.99,0.0,meteohub,2013-10-08 23:57:00,
2013-10-08 20:02:00,82.9,56.1,-100.00,WSW,238,0.0,-999.0,40,-99.99,,,-99.99,0.0,meteohub,2013-10-09 00:02:00,
2013-10-08 20:07:00,82.8,55.2,-100.00,WSW,239,0.0,-999.0,39,-99.99,,,-99.99,0.0,meteohub,2013-10-09 00:07:00,
2013-10-08 20:12:00,82.6,54.3,-100.00,WSW,239,0.0,-999.0,38,-99.99,,,-99.99,0.0,meteohub,2013-10-09 00:12:00,
2013-10-08 20:17:00,82.4,53.6,-100.00,WSW,240,0.0,-999.0,37,-99.99,,,-99.99,0.0,meteohub,2013-10-09 00:17:00,
2013-10-08 20:22:00,82.2,53.4,-100.00,WSW,240,3.0,-999.0,37,-99.99,,,-99.99,0.0,meteohub,2013-10-09 00:22:00,
2013-10-08 20:27:00,82.0,52.5,-100.00,WSW,240,0.0,-999.0,36,-99.99,,,-99.99,0.0,meteohub,2013-10-09 00:27:00,
2013-10-08 20:32:00,81.9,51.4,-100.00,WSW,240,0.0,-999.0,35,-99.99,,,-99.99,0.0,meteohub,2013-10-09 00:32:00,
2013-10-08 20:37:00,81.7,50.5,-100.00,WSW,241,0.0,-999.0,34,-99.99,,,-99.99,0.0,meteohub,2013-10-09 00:37:00,
2013-10-08 20:42:00,81.7,51.4,-100.00,WNW,296,4.0,-999.0,35,-99.99,,,-99.99,0.0,meteohub,2013-10-09 00:42:00,
2013-10-08 20:47:00,81.7,51.4,-100.00,WNW,294,0.0,-999.0,35,-99.99,,,-99.99,0.0,meteohub,2013-10-09 00:47:00,
2013-10-08 20:52:00,81.3,50.2,-100.00,WNW,293,0.0,-999.0,34,-99.99,,,-99.99,0.0,meteohub,2013-10-09 00:52:00,
2013-10-08 20:57:00,81.1,48.6,-100.00,West,267,0.0,-999.0,32,-99.99,,,-99.99,0.0,meteohub,2013-10-09 00:57:00,
2013-10-08 21:02:00,81.0,47.5,-100.00,West,267,0.0,-999.0,31,-99.99,,,-99.99,0.0,meteohub,2013-10-09 01:02:00,
2013-10-08 21:07:00,80.8,46.4,-100.00,West,272,1.0,-999.0,30,-99.99,,,-99.99,0.0,meteohub,2013-10-09 01:07:00,
2013-10-08 21:12:00,80.6,44.4,-100.00,West,273,2.0,-999.0,28,-99.99,,,-99.99,0.0,meteohub,2013-10-09 01:12:00,
2013-10-08 21:17:00,80.4,43.3,-100.00,West,276,0.0,-999.0,27,-99.99,,,-99.99,0.0,meteohub,2013-10-09 01:17:00,
2013-10-08 21:22:00,80.2,41.2,-100.00,WNW,283,3.0,-999.0,25,-99.99,,,-99.99,0.0,meteohub,2013-10-09 01:22:00,
2013-10-08 21:27:00,80.1,38.8,-100.00,WNW,282,0.0,-999.0,23,-99.99,,,-99.99,0.0,meteohub,2013-10-09 01:27:00,
2013-10-08 21:32:00,80.1,37.8,-100.00,WNW,287,1.0,-999.0,22,-99.99,,,-99.99,0.0,meteohub,2013-10-09 01:32:00,
2013-10-08 21:37:00,80.1,35.4,-100.00,WNW,288,0.0,-999.0,20,-99.99,,,-99.99,0.0,meteohub,2013-10-09 01:37:00,
2013-10-08 21:42:00,80.1,32.7,-100.00,West,277,0.0,-999.0,18,-99.99,,,-99.99,0.0,meteohub,2013-10-09 01:42:00,
2013-10-08 21:47:00,80.1,31.3,-100.00,WNW,287,2.0,-999.0,17,-99.99,,,-99.99,0.0,meteohub,2013-10-09 01:47:00,
2013-10-08 21:52:00,80.1,29.8,-100.00,WNW,288,1.0,-999.0,16,-99.99,,,-99.99,0.0,meteohub,2013-10-09 01:52:00,
2013-10-08 21:57:00,79.9,28.0,-100.00,WNW,293,2.0,-999.0,15,-99.99,,,-99.99,0.0,meteohub,2013-10-09 01:57:00,
2013-10-08 22:02:00,79.9,26.4,-100.00,West,279,0.0,-999.0,14,-99.99,,,-99.99,0.0,meteohub,2013-10-09 02:02:00,
2013-10-08 22:07:00,79.9,22.8,-100.00,West,275,1.0,-999.0,12,-99.99,,,-99.99,0.0,meteohub,2013-10-09 02:07:00,
2013-10-08 22:12:00,79.9,20.7,-100.00,WNW,284,1.0,-999.0,11,-99.99,,,-99.99,0.0,meteohub,2013-10-09 02:12:00,
2013-10-08 22:17:00,79.9,18.5,-100.00,WNW,289,0.0,-999.0,10,-99.99,,,-99.99,0.0,meteohub,2013-10-09 02:17:00,
2013-10-08 22:22:00,79.9,18.5,-100.00,WNW,286,3.0,-999.0,10,-99.99,,,-99.99,0.0,meteohub,2013-10-09 02:22:00,
2013-10-08 22:27:00,79.9,16.0,-100.00,WNW,283,0.0,-999.0,9,-99.99,,,-99.99,0.0,meteohub,2013-10-09 02:27:00,
2013-10-08 22:32:00,79.9,16.0,-100.00,West,278,1.0,-999.0,9,-99.99,,,-99.99,0.0,meteohub,2013-10-09 02:32:00,
2013-10-08 22:37:00,79.9,13.3,-100.00,West,278,3.0,-999.0,8,-99.99,,,-99.99,0.0,meteohub,2013-10-09 02:37:00,
2013-10-08 22:42:00,79.9,13.3,-100.00,NW,313,2.0,-999.0,8,-99.99,,,-99.99,0.0,meteohub,2013-10-09 02:42:00,
2013-10-08 22:47:00,79.7,13.1,-100.00,West,280,0.0,-999.0,8,-99.99,,,-99.99,0.0,meteohub,2013-10-09 02:47:00,
2013-10-08 22:52:00,79.5,13.1,-100.00,West,280,1.0,-999.0,8,-99.99,,,-99.99,0.0,meteohub,2013-10-09 02:52:00,
2013-10-08 22:57:00,79.5,13.1,-100.00,WNW,300,0.0,-999.0,8,-99.99,,,-99.99,0.0,meteohub,2013-10-09 02:57:00,
2013-10-08 23:02:00,79.3,12.9,-100.00,WNW,299,0.0,-999.0,8,-99.99,,,-99.99,0.0,meteohub,2013-10-09 03:02:00,
2013-10-08 23:07:00,79.2,12.7,-100.00,West,263,0.0,-999.0,8,-99.99,,,-99.99,0.0,meteohub,2013-10-09 03:07:00,
2013-10-08 23:12:00,79.2,12.7,-100.00,West,263,1.0,-999.0,8,-99.99,,,-99.99,0.0,meteohub,2013-10-09 03:12:00,
2013-10-08 23:17:00,79.0,12.6,-100.00,West,264,0.0,-999.0,8,-99.99,,,-99.99,0.0,meteohub,2013-10-09 03:17:00,
2013-10-08 23:22:00,78.8,12.6,-100.00,West,265,0.0,-999.0,8,-99.99,,,-99.99,0.0,meteohub,2013-10-09 03:22:00,
2013-10-08 23:27:00,78.6,15.1,-100.00,West,265,0.0,-999.0,9,-99.99,,,-99.99,0.0,meteohub,2013-10-09 03:27:00,
2013-10-08 23:32:00,78.6,15.1,-100.00,West,266,0.0,-999.0,9,-99.99,,,-99.99,0.0,meteohub,2013-10-09 03:32:00,
2013-10-08 23:37:00,78.6,15.1,-100.00,West,266,2.0,-999.0,9,-99.99,,,-99.99,0.0,meteohub,2013-10-09 03:37:00,
2013-10-08 23:42:00,78.4,14.9,-100.00,West,265,0.0,-999.0,9,-99.99,,,-99.99,0.0,meteohub,2013-10-09 03:42:00,
2013-10-08 23:47:00,78.4,14.9,-100.00,West,266,0.0,-999.0,9,-99.99,,,-99.99,0.0,meteohub,2013-10-09 03:47:00,
2013-10-08 23:52:00,78.3,14.7,-100.00,West,266,0.0,-999.0,9,-99.99,,,-99.99,0.0,meteohub,2013-10-09 03:52:00,
2013-10-08 23:57:00,78.3,14.7,-100.00,West,265,0.0,-999.0,9,-99.99,,,-99.99,0.0,meteohub,2013-10-09 03:57:00,